Погода Викулово

Погода Викулово : погода сейчас, прогноз погоды и архив. Всё, что Вы хотите узнать о погоде Викулово!

Поиск расширенной информации на нашем сайте:

Другие новости

Новости СМИ2

Главная страница сайта

Новости сайта

03.07.2017

Напоминаем, что на нашем специализированном сайте Метеоцентр.Азия вы можете получить высокодетализированные автоматические прогнозы погоды по пунктам России, СНГ и мира в авиационном формате (включающие направление и скорость ветра, видимость, явления погоды, количество и форму облачности, нижнюю и верхнюю границу облачности).

Рекомендуем: Купить природный камень песчаник в москве пластушка камень песчаник купить.

Погода Викулово - сегодня

Время (UTC), дата Ветер
(°,м/с) 
Видим.   Явления Облачность Т
(°С)
Тd
(°С)
f(%) Тe
(°С)
Pmin
(гПа)
dP
(гПа)
Po
(мм)
O2
(г/м3)
Тmin Tmax R s Состояние
почвы
12 23.07.17 180 (Ю) 20000 м  {ливн. осадки}  9/9 600 м кучево-дожд. 
[Cb calv]
+23.8 +14 54 +31  1006.8  -1.2  748  275           
15 23.07.17 280 (З) 20000 м  гроза, ливневой дождь  10/10 600 м кучево-дожд. 
[Cb cap]
+19.8 +16.2 80 +32  1006.5  -0.4  748  278    +25.6  0.0     
18 23.07.17 230 (ЮЗ) 10 км  гроза, ливневой дождь  10/10 600 м кучево-дожд. 
[Cb cap]
+17.2 +15.6 90 +29  1005.5  -1.1  747  280           
21 23.07.17 140 (ЮВ) 10 км  слаб. ливневой дождь{гроза}  10/10 600 м кучево-дожд. 
[Cb cap]
+16.7 +15.7 94 +28  1004.5  -1  747  280           
00 24.07.17 350 (С) 4000 м  гроза, ливневой дождь  10/10 600 м кучево-дожд. 
[Cb cap]
+16.6 +15.7 94 +27  1003.5  -1  746  280           
03 24.07.17 290 (З) 10 км  {гроза, ливн. осадки}  8/8 600 м кучево-дожд. 
[Cb calv]
+18.2 +17.2 94 +33  1003  -0.4  746  278  +15.5       
06 24.07.17 330 (СЗ) 20000 м  {гроза, ливн. осадки}  8/8 600 м кучево-дожд. 
[Cb calv]
+22.3 +16 68 +33  1002.6  -0.3  745  274           
09 24.07.17 290 (З) 20000 м    8/8 600 м 
[Cu Sc]
+20.5 +15.4 73 +30  1003.1  0.4  746  276           
12 24.07.17 290 (З) 20000 м    8/6 600 м верхняя 
[Cu Sc|Ci sp]
+21.3 +15.5 70 +31  1003.4  0.3  746  276           
15 24.07.17 280 (З) 20000 м    8/5 600 м кучево-дожд., верхняя 
[Cb calv|Ci fib]
+20.5 +16.5 78 +32  1003.6  0.2  746  276    +22.9       
18 24.07.17 300 (СЗ) 20000 м    ясно 
+17.6 +15.9 90 +28  1003.6  746  279           
21 24.07.17 тихо ()   20000 м    ясно 
+15.8 +14.6 93 +24  1004.1  0.4  746  281           
00 25.07.17 тихо ()   4000 м  дымка  3/0 верхняя 
[Ci fib]
+14.3 +13.4 94 +20  1004  -0.2  746  283           
03 25.07.17 тихо ()   0500 м  туман  10/10 300 м 
[St]
+17.1 +16.1 94 +28  1004.1  0.2  746  279  +14         
06 25.07.17 120 (ЮВ) 20000 м  {туман}  9/6 600 м кучево-дожд., верхняя 
[Cb calv|Ci fib]
+23.6 +14.4 56 +31  1003.9  746  274           
09 25.07.17 040 (СВ) 20000 м    9/6 600 м кучево-дожд., верхняя 
[Cb calv|Ci sp]
+26.5 +12.9 43 +32  1003  -0.8  746  271           
12 25.07.17 220 (ЮЗ) 20000 м    10/8 600 м кучево-дожд., верхняя 
[Cb calv|Ci sp]
+25.4 +13.6 48 +32  1002.7  -0.4  745  272           
15 25.07.17 260 (З) 20000 м    10/8 600 м кучево-дожд. 
[Cb calv]
+20.4 +15.9 75 +31  1003.3  0.5  746  276    +27.1       
18 25.07.17 тихо ()   10 км  слаб. ливневой дождь  10/8 600 м кучево-дожд. 
[Cb calv]
+17.8 +16.3 91 +29  1004.1  0.7  746  279           
21 25.07.17 210 (ЮЗ) 20000 м  {ливн. осадки}  8/8 600 м 
[Sc]
+17.1 +16 93 +30  1004.1  -0.1  746  279           
00 26.07.17 240 (ЮЗ) 1000 м  дымка  ясно 
+15.5 +14.6 94 +25  1004.1  746  281           
03 26.07.17 220 (ЮЗ) 2000 м  дымка{туман}  8/8 600 м 
[Sc]
+16.2 +15.4 95 +27  1004.9  0.9  747  281  +15.1       
06 26.07.17 200 (Ю) 20000 м  {туман}  8/8 600 м 
[Cu med, cong]
+22.3 +13.6 58 +29  1004.8  0.1  747  276           
09 26.07.17 280 (З) 20000 м    6/6 600 м 
[Cu med, cong]
+25.1 +13.1 47 +31  1004.2  -0.6  747  273           
12 26.07.17 270 (З) 20000 м    6/4 600 м верхняя 
[Cu med, cong|Ci fib]
+26 +11 39 +29  1004  -0.2  746  273           
Время (UTC), дата Ветер
(°,м/с) 
Видим.   Явления Облачность Т
(°С)
Тd
(°С)
f(%) Тe
(°С)
Pmin
(гПа)
dP
(гПа)
Po
(мм)
O2
(г/м3)
Тmin Tmax R s Состояние
почвы

Для получения пояснительной информации подведите курсор к названию столбца.

ПОГОДА Викулово - архив

Всё, что Вы хотите узнать о погоде Викулово - удобно и подробно!

Выберите нужную дату (начиная с 1 января 2015* года) и нажмите кнопку "Найти".
Будут отображены архивные сводки погоды по пункту Викулово, начиная с указанной даты.


Отображать данные в формате CSV (для использования в таблицах Excel)


Внимание! Наш архив погоды предназначен исключительно для личного некоммерческого использования в познавательных целях. Если Вам необходимы официальные справки о состоянии погоды (для производственных, юридических, коммерческих и т.п. целей), обращайтесь в органы Росгидромета.

*Примечание: данная дата относится к архиву по метеостанциям СССР (Россия, СНГ, Балтия).
Архив по метеостанциям Зарубежной Европы и Азии (кроме Китая) хранится 10 дней, по другим регионам земного шара (Китай, Африка, Америка, Австралия, Океания) - 1 день.

Викулово - район местоположения метеостанции


Название, широта, долгота, высота метеостанции:
Викулово 56.8°ш. 70.6°д. 78 м над ур. моря [Российская Федерация]

Дополнительная информация

В oтличие oт бoльшинства пoгoдных сайтoв мы публикуем пoдрoбную метеoинфoрмацию в детальнoм прoфессиoнальнoм фoрмате.

Характеристики температуры и влажнoсти вoздуха измеряются на высoте 2 м в тени вдали oт зданий и деревьев.
Скoрoсть ветра измеряется на высoте 10 м (на урoвне рoста челoвека скoрoсть ветра ниже в 1.5-2 раза). Если метеoстанция нахoдится в гoрoде или в лесу, тo скoрoсть ветра занижена на 2-4 м/с пo сравнению с oткрытым местoм. Скoрoсть ветра над акватoриями крупных рек и oзёр, а также на вершинах хoлмoв на 2-5 м/с выше, чем в oбычных услoвиях.
Атмoсфернoе давление в разных тoчках местнoсти мoжет значительнo oтличаться oт давления на метеoстанции, в зависимoсти oт услoвий рельефа (при пoдъёме на 10 м давление пoнижается примернo на 1 мм рт.ст.).